Ask Your Question

Mike Kaganski's profile - karma

Mike Kaganski's karma change log

15 0 Why does the Text CSV filter not permit *.txt extensions? ( 2017-10-17 07:13:56 +0200 )

10 0 Why does the Text CSV filter not permit *.txt extensions? ( 2017-10-17 07:13:47 +0200 )

10 0 How to get multiple results of a cell? ( 2017-10-13 17:06:28 +0200 )

15 0 How to get multiple results of a cell? ( 2017-10-12 20:10:27 +0200 )

10 0 vista system ( 2017-10-09 12:20:16 +0200 )

15 0 MAC Printer not printing "empty" pages ( 2017-10-01 16:56:18 +0200 )

0 -15 In numbering, how to put sublevel in same line with empty level? ( 2017-09-21 02:22:08 +0200 )

15 0 In numbering, how to put sublevel in same line with empty level? ( 2017-09-21 02:21:50 +0200 )

15 0 Default Setting for image drag and drop ( 2017-09-18 14:14:50 +0200 )

10 0 VLOOKUP and best-right way ( 2017-09-16 16:19:52 +0200 )

10 0 Sorting for Myanmar text is different order from ICU 59.1 ( 2017-09-16 16:19:02 +0200 )

10 0 VLOOKUP and best-right way ( 2017-09-14 17:50:59 +0200 )

10 0 compare prices and add comment ( 2017-09-14 17:49:42 +0200 )

15 0 VLOOKUP and best-right way ( 2017-09-14 10:59:19 +0200 )

10 0 Calc gives out incorrect SUM ( 2017-09-14 09:00:12 +0200 )

10 0 VLOOKUP and best-right way ( 2017-09-14 07:24:33 +0200 )

15 0 Does LibreOffice change the MS Office installation in any way? ( 2017-09-13 20:26:08 +0200 )

10 0 Can't change style for only one paragraph, entire document changes. ( 2017-09-10 11:41:57 +0200 )

15 0 How to redirect output ( 2017-09-07 21:45:17 +0200 )

15 0 compare prices and add comment ( 2017-09-07 16:57:06 +0200 )

0 -15 compare prices and add comment ( 2017-09-07 16:57:05 +0200 )

15 0 compare prices and add comment ( 2017-09-07 16:57:02 +0200 )

10 0 split textbox across pages ( 2017-09-06 18:40:37 +0200 )

15 0 which version LO installed: 64 or 32 ( 2017-09-05 02:13:15 +0200 )

0 -15 which version LO installed: 64 or 32 ( 2017-09-05 02:09:20 +0200 )

15 0 which version LO installed: 64 or 32 ( 2017-09-05 02:09:18 +0200 )

10 0 which version LO installed: 64 or 32 ( 2017-09-05 02:09:16 +0200 )

10 0 After each update there are changes in some saved documents. ( 2017-09-04 14:40:27 +0200 )

10 0 Is there any way to preview odt files in Windows Explorer? ( 2017-09-03 21:16:00 +0200 )

10 0 How do I upgrade to Libre Office 5.4 ( 2017-09-02 22:50:06 +0200 )

10 0 Is it Possible to Merge Styles in Writer? ( 2017-09-02 20:51:23 +0200 )

15 0 Are there limits to template contents or size? ( 2017-08-26 01:26:29 +0200 )

15 0 Re: Calc - COS(), can this be fixed? ( 2017-08-25 17:53:53 +0200 )

10 0 Build LibreOffice without GUI on Ubuntu ( 2017-08-24 09:22:57 +0200 )

0 -10 Build LibreOffice without GUI on Ubuntu ( 2017-08-24 09:22:57 +0200 )

10 0 Build LibreOffice without GUI on Ubuntu ( 2017-08-24 09:22:57 +0200 )

10 0 Build LibreOffice without GUI on Ubuntu ( 2017-08-24 08:07:45 +0200 )

2 0 MAKE IT POSSIBLE TO DISABLE AUTOMATIC, FORCED DATE RECOGNITION ( 2017-08-22 21:27:59 +0200 )

0 -2 MAKE IT POSSIBLE TO DISABLE AUTOMATIC, FORCED DATE RECOGNITION ( 2017-08-22 21:26:12 +0200 )

15 0 Convert-to from csv to ods and viceversa ( 2017-08-22 16:19:59 +0200 )

10 0 Convert-to from csv to ods and viceversa ( 2017-08-22 16:19:53 +0200 )

15 0 Select a word that includes dashes ( 2017-08-21 00:58:47 +0200 )

10 0 Are there limits to template contents or size? ( 2017-08-17 15:25:06 +0200 )

0 -2 =CONCATENATE(text1;text2;....) riddle ( 2017-08-17 11:38:02 +0200 )

15 0 LO 5.4.0 Cannot Find Java JRE ( 2017-08-15 08:25:16 +0200 )

10 0 Page break problem? ( 2017-08-08 19:38:05 +0200 )

10 0 Page break problem? ( 2017-08-08 15:42:18 +0200 )

15 0 Page break problem? ( 2017-08-08 15:42:17 +0200 )

10 0 Make next line of text start automatically in following row of table (writer) ( 2017-08-08 14:37:36 +0200 )

15 0 Change case of first letter using regular expression ( 2017-08-08 06:57:03 +0200 )

15 0 Office upgrade question ( 2017-08-04 13:09:58 +0200 )

10 0 Turn PDF into editable/searchable document/ebook ( 2017-08-03 23:58:59 +0200 )

10 0 What is CloudAv0505112936_3080 and can I delete it and a great number of such files? ( 2017-07-31 22:18:44 +0200 )

15 0 When I type X1 in calc it turns into 01.10.2001 (Slovak or Polish locale) ( 2017-07-31 12:59:43 +0200 )

10 0 where can I find source code for writer ( 2017-07-29 23:47:59 +0200 )

10 0 My first two photo caption numbers are reversed. How do I get them back in order? ( 2017-07-27 07:39:00 +0200 )

10 0 how know much memory cache needed ( 2017-07-27 03:58:50 +0200 )

15 0 how know much memory cache needed ( 2017-07-27 03:58:48 +0200 )

10 0 Please add deprecation message to "community wiki" checkbox ( 2017-07-26 01:22:11 +0200 )

10 0 Please add deprecation message to "community wiki" checkbox ( 2017-07-25 19:37:47 +0200 )

10 0 Please add deprecation message to "community wiki" checkbox ( 2017-07-25 15:11:58 +0200 )

10 0 How to prevent CrashReport dialog on LibreOffice startup ( 2017-07-12 15:46:56 +0200 )

10 0 How can I set my documents so that the open at the bottom. ( 2017-07-12 13:38:18 +0200 )

10 0 Incorrect results produced by simple subtraction ( 2017-07-07 23:11:59 +0200 )

0 -2 why have you people made it impossible to change the default font to anything besides Liberation Mono ( 2017-07-06 07:23:53 +0200 )

0 -15 How to print first row on each page in calc ( 2017-07-05 13:32:44 +0200 )

15 0 How to print first row on each page in calc ( 2017-07-05 13:32:37 +0200 )

15 0 How do I make a table wrap within a page? ( 2017-07-02 16:42:45 +0200 )

15 0 LibreOffice Writer page numbering plus one ( 2017-06-27 16:43:19 +0200 )

0 -15 LibreOffice Writer page numbering plus one ( 2017-06-27 16:42:49 +0200 )

15 0 LibreOffice Writer page numbering plus one ( 2017-06-27 16:42:37 +0200 )

10 0 Use IF statements to change text colour? ( 2017-06-26 14:38:01 +0200 )

15 0 How to install (or use as standalone app) ONLY LibreOffice Calc on Windows 10? ( 2017-06-23 13:25:24 +0200 )

15 0 Convert from CSV to XLSX from console with specific delimiter ( 2017-06-23 11:01:56 +0200 )

10 0 Printing whole spread sheet ( 2017-06-15 15:15:04 +0200 )

10 0 cannot enable asian language support; cannot use asian phonetic guide ( 2017-06-13 12:59:34 +0200 )

10 0 Raw data visualised in table ( 2017-06-13 02:48:43 +0200 )

10 0 Number format for "quantity of time"? ( 2017-06-11 15:09:58 +0200 )

15 0 Number format for "quantity of time"? ( 2017-06-11 15:09:56 +0200 )

10 0 can libre office convert a msworks file? ( 2017-06-10 00:09:19 +0200 )

10 0 Number format for "quantity of time"? ( 2017-06-07 22:58:53 +0200 )

10 0 =IF(B2=B50:B53,A50:A53,"NA") ( 2017-06-07 05:18:46 +0200 )

10 0 Number format for "quantity of time"? ( 2017-06-06 07:08:48 +0200 )

15 0 Why doesn't LO Writer open and save text documents encoded in UTF-8 without BOM? Any plans to fix this soon? ( 2017-06-05 23:06:20 +0200 )

10 0 IF formula question ( 2017-06-05 13:51:29 +0200 )

15 0 small caps how to do it ( 2017-06-02 09:25:50 +0200 )

10 0 =int(-5/3600)returns -1, expecting 0, ? ( 2017-06-01 16:05:50 +0200 )

10 0 Definitively fixing the dreaded Error 1335 libreoffice1.cab error ( 2017-06-01 15:34:38 +0200 )

10 0 How to delete recently viewed documents from opening page? ( 2017-05-30 21:50:33 +0200 )

10 0 How to have COLOR, in IF THEN answer? ( 2017-05-30 15:38:25 +0200 )

10 0 How do I change the page/paper size in a manuscript? (Not a new document) ( 2017-05-25 13:13:14 +0200 )

15 0 LibreOffice Writer - Save changes current view of document ( 2017-05-25 01:52:56 +0200 )

10 0 ThisDatabaseDocument vs ThisComponent? ( 2017-05-23 16:52:39 +0200 )

0 -15 ThisDatabaseDocument vs ThisComponent? ( 2017-05-23 16:41:00 +0200 )

15 0 Librewriter decimal tab, aligns to space even if the seperator is different. ( 2017-05-23 09:47:58 +0200 )

10 0 Your download page should say this don't work w/Win10- why not? ( 2017-05-22 13:46:45 +0200 )

10 0 Your download page should say this don't work w/Win10- why not? ( 2017-05-22 08:16:33 +0200 )

10 0 Installation: how is LibreOffice installation stored in Windows registry ( 2017-05-19 14:04:38 +0200 )

10 0 How do I import fields in yyyy-mm-dd format from a csv file? ( 2017-05-18 17:10:40 +0200 )

15 0 Insert a given number in the middle of text. ( 2017-05-17 23:36:01 +0200 )